Home   Weather   Ashgabat   Past weeks

Flag for Turkmenistan Past Weather in Ashgabat, Turkmenistan — Yesterday and Last 2 Weeks

Now
93 °F

More clouds than sun.


Feels Like: 89 °F
Forecast: 64 / 75 °F
Wind: 17 mph from Southeast

Location: Ashgabat

Current Time: Apr 24, 2017 at 2:37:39 pm

Latest Report: Apr 24, 2017 at 2:00 pm


Visibility: 3 mi

Pressure: 29.68 "Hg

Humidity: 12%

Dew Point: 34 °F

Location of AshgabatLocation

Past Weather in Ashgabat — Graph

°F

Ashgabat Temperature Yesterday

Maximum temperature yesterday: 81 °F (at 5:00 pm)
Minimum temperature yesterday: 59 °F (at 6:00 am)
Average temperature yesterday: 70 °F

High & Low Weather Summary for the Past Weeks

 TemperatureHumidityPressure
High93 °F (Apr 24, 1:00 pm)100% (Apr 17, 3:00 am)30.30 "Hg (Apr 17, 3:00 am)
Low52 °F (Apr 18, 6:00 am)13% (Apr 24, 1:00 pm)29.59 "Hg (Apr 15, 4:00 am)
Average68 °F55%29.97 "Hg
* Reported Apr 9 1:00 pm — Apr 24 1:00 pm, Ashgabat, Weather by CustomWeather, © 2017

Note: Actual official high and low records may vary slightly from our data, if they occured in-between our weather recording intervals... More about our weather records

Advertising

Ashgabat Weather History for the Previous 24 Hours

Scroll right to see more
 ConditionsComfort  
Time TempWeatherWind HumidityBarometerVisibility
1:00 pm
Mon, Apr 24
93 °FMore clouds than sun.18 mph13%29.68 "Hg3 mi
12:00 pm91 °FPassing clouds.18 mph15%29.71 "Hg3 mi
11:00 am88 °FPassing clouds.18 mph18%29.71 "Hg3 mi
10:00 am82 °FPassing clouds.14 mph25%29.74 "Hg6 mi
9:00 am77 °FPassing clouds.13 mph26%29.74 "HgN/A
8:00 am70 °FPassing clouds.8 mph40%29.74 "HgN/A
7:00 am64 °FClear.7 mph46%29.74 "HgN/A
6:00 am61 °FClear.8 mph59%29.77 "HgN/A
5:00 am61 °FClear.7 mph59%29.77 "Hg6 mi
4:00 am63 °FClear.10 mph56%29.77 "HgN/A
3:00 am63 °FClear.8 mph64%29.80 "HgN/A
2:00 am63 °FClear.1 mph64%29.83 "HgN/A
1:00 am64 °FClear.3 mph60%29.86 "HgN/A
12:00 am66 °FClear.3 mph56%29.89 "HgN/A
11:00 pm
Sun, Apr 23
68 °FClear.2 mph53%29.92 "Hg6 mi
10:00 pm70 °FClear.1 mph50%29.95 "HgN/A
9:00 pm73 °FClear.8 mph41%29.95 "HgN/A
8:00 pm77 °FClear.7 mph36%29.98 "HgN/A
7:00 pm79 °FClear.13 mph32%29.98 "HgN/A
6:00 pm81 °FClear.8 mph28%29.98 "HgN/A
5:00 pm81 °FClear.6 mph28%30.01 "HgN/A
4:00 pm79 °FClear.7 mph32%30.04 "HgN/A
3:00 pm79 °FClear.3 mph30%30.09 "HgN/A
2:00 pm75 °FClear.5 mph36%30.12 "HgN/A
Weather by CustomWeather, © 2017

See weather overviewHow to use our weather pages